COSMOS 2251 DEB, 34307

Orbit data source: Space-Track

COSMOS 2251 DEB, 34307 is space debris in LEO originally from a launch on Wed, 16 Jun 1993 UTC launched from the Plesetsk Missile And Space Complex (PKMTR). The debris from Iridium 33, an American commercial communications satellite, has been tracked extensively since its accidental collision with the defunct Russian satellite Cosmos 2251 in 2009. This event, occurring at high speed in low Earth orbit (LEO), generated thousands of pieces of space debris, significantly increasing the risk of further collisions. The Iridium 33 debris cloud has impacted space traffic management and orbital debris mitigation strategies, making it a subject of ongoing study in space situational awareness.

Loading next visibility...
Identifier
34307, 1993-036ND
Orbit
LEO
Country
Flag of CISCIS
Related business
Manufacturer
Unknown
Mission
Spacecraft
Bus & Motor
Unknown
Mass
Unknown
Launch date (UTC)
1993-06-16 (33 years ago)
Launch vehicle
Unknown
Launch site
Plesetsk Missile And Space Complex (PKMTR)
Object type
Payload
Rocket body
Debris
Shape & HBR
Unknown shape, 0.1 m
Radar Cross Section
Small (<0.1 m²)

Expand to show TLE details & history
Last TLE update: 11 hours ago

TLE from 11 hours ago
0 COSMOS 2251 DEB
1 34307U 93036ND  26162.98093034  .00000661  00000-0  60835-3 0  9999
2 34307  74.0536  22.2015 0392293 173.6447 260.6717 13.54617034853162
Epoch: 2026-06-11T23:32Z
TLE epoch observation values (Epoch: 2026-06-11T23:32:32.381Z)
Latitude
64.65911°
Longitude
165.63983°
Altitude
1,124.414 km
Speed
7.268 km/s
True Right ascension
03h 56m 22s
True Declination
64° 31' 56"
Sunlit
Object was in daylight at epoch
Visualization orbit readout
Latitude
Unknown
Longitude
Unknown
Altitude
Unknown
Speed
Unknown
Apparent Right ascension
Unknown
Apparent Declination
Unknown
Sunlit
N/A
Visualization observer readout
Local Sidereal Time
20:54:35
Azimuth
Unknown
Elevation
Unknown
Doppler factor
Unknown
Orbital elements
Apogee altitude
1,344.547 km
Perigee altitude
761.509 km
Semi-major axis
7,431.165 km
Eccentricity
0.03923
Inclination
74.0536°
RAAN
22.2015°
Arg. of periapsis
173.6447°
True anomaly
256.27511°
Mean anomaly
260.6717°
Eccentric anomaly
258.46939°
Mean motion
3.38811 °/min
Orbital period
106.25 mins
BSTAR
0.00060835

Documentation

Showing up to 5 results
|